TITAN 3C TRANSTAGE DEB, 39299

Orbit data source: Space-Track

TITAN 3C TRANSTAGE DEB, 39299 is space debris originally from a launch on Thu, 26 Sep 1968 UTC launched from the Air Force Eastern Test Range (AFETR). Debris objects in space refer to the collection of defunct objects orbiting the Earth. Examples of debris include non-operational satellites, rocket bodies, and fragments generated from explosions, collisions, or faulty payload assembly.

Loading next visibility...
TITAN 3C TRANSTAGE DEB details
Identifier
39299, 1968-081AK
Orbit
Active
Last TLE update21 hours ago
Origin
Flag of USUSAF SSD (US)
ManufacturerUnknown
MissionSpacecraft
Bus & MotorUnknown
MassUnknown
Launch date (UTC)
1968-09-26 (56 years ago)
Launch vehicleUnknown
Launch site
Air Force Eastern Test Range (AFETR)
Object type
Payload
Rocket body
Debris
Shape & HBRUnknown
Radar Cross SectionRCS unknown

Expand to show TLE details & history

TLE from 21 hours ago
0 TITAN 3C TRANSTAGE DEB
1 39299U 68081AK  24336.57234103  .00000127  00000-0  00000-0 0  9998
2 39299   1.4257 338.1313 0147486  58.4259  76.7556  1.00395483 61532
Epoch: 2024-12-01T13:44Z
Definitive object data (Epoch: 2024-12-01T13:44:10.264Z)
Latitude0.98675°
Longitude-162.00914°
Altitude35,613.845 km
Speed3.086 km/s
True Right ascension07h 39m 46s
True Declination0° 59' 09"
Sunlit
Object was in daylight at TLE epoch
Visualization TLE readout
Latitude1.44616°
Longitude146.46658°
Altitude35,192.317 km
Speed3.117 km/s
Apparent Right ascension03h 49m 27s
Apparent Declination-4° 24' 59"
Sunlit
Object is in daylight
Visualization observer readout
Local Sidereal Time08:03:21
Azimuth248.872° W
Elevation16.982°
Doppler factor1
Orbital elements
Apogee altitude36,374.4 km
Perigee altitude35,131.648 km
Semi-major axis42,131.161 km
Eccentricity0.0147486
Inclination1.4257°
RAAN338.1313°
Arg. of periapsis58.4259°
True anomaly78.40746°
Mean anomaly76.7556°
Eccentric anomaly77.58086°
Mean motion0.25098 °/min
BSTARUnknown
Orbital period1434.38 mins
Loading maneuver chart data...

TITAN 3C TRANSTAGE DEB Visibility forecast

Observer location: undefined°, undefined

Span
Click to sort rows by Start time (UTC) header in descending order
Start Az.
Max El. time (UTC)
Max El. Az.
Max El.
End time (UTC)
End Az.
1440 mins2024-12-02 10:16:49.739Z248.857° W2024-12-02 13:07:49.739Z247.899° W16.722°2024-12-03 10:16:49.739Z248.48° W
|